JBU2783 KBOS-KRDU

Flight info

Callsign JBU2783
Flight time 1h 9m
Altitude 32000
Route PATSS7 PATSS DCT NELIE Q75 GVE DCT MELTN ALDAN4
Aircraft E190/M-VGDW/C

Departure

Time 2026-04-28 21:24
Airport Boston Logan International Airport (KBOS)

Arrival

Time 2026-04-28 22:33
Airport Raleigh-Durham International Airport (KRDU)
Time Latitude Longitude Altitude Speed Heading
2026-04-28 21:01 42.36733 -71.01483 21 ft 0 kts 333°
2026-04-28 21:13 42.36731 -71.01481 21 ft 3 kts 333°
2026-04-28 21:13 42.36715 -71.01470 24 ft 3 kts 333°
2026-04-28 21:14 42.36699 -71.01460 23 ft 2 kts 333°
2026-04-28 21:14 42.36684 -71.01449 21 ft 2 kts 333°
2026-04-28 21:14 42.36674 -71.01443 22 ft 0 kts 333°
2026-04-28 21:17 42.36675 -71.01443 22 ft 1 kts 338°
2026-04-28 21:17 42.36688 -71.01430 24 ft 5 kts 33°
2026-04-28 21:18 42.36702 -71.01383 21 ft 8 kts 90°
2026-04-28 21:18 42.36700 -71.01290 23 ft 10 kts 116°
2026-04-28 21:18 42.36635 -71.01270 24 ft 13 kts 191°
2026-04-28 21:18 42.36521 -71.01330 22 ft 22 kts 200°
2026-04-28 21:19 42.36359 -71.01415 20 ft 26 kts 200°
2026-04-28 21:19 42.36220 -71.01481 22 ft 17 kts 184°
2026-04-28 21:19 42.36136 -71.01439 27 ft 11 kts 181°
2026-04-28 21:19 42.36066 -71.01466 25 ft 11 kts 201°
2026-04-28 21:20 42.35993 -71.01499 24 ft 11 kts 199°
2026-04-28 21:20 42.35925 -71.01532 25 ft 10 kts 200°
2026-04-28 21:20 42.35896 -71.01542 25 ft 2 kts 199°
2026-04-28 21:20 42.35866 -71.01557 28 ft 10 kts 198°
2026-04-28 21:21 42.35800 -71.01523 26 ft 14 kts 111°
2026-04-28 21:21 42.35766 -71.01403 27 ft 14 kts 110°
2026-04-28 21:21 42.35726 -71.01270 23 ft 16 kts 120°
2026-04-28 21:21 42.35688 -71.01209 25 ft 0 kts 124°
2026-04-28 21:22 42.35675 -71.01182 24 ft 8 kts 124°
2026-04-28 21:22 42.35633 -71.01081 23 ft 14 kts 105°
2026-04-28 21:23 42.35629 -71.01004 22 ft 0 kts 80°
2026-04-28 21:23 42.35658 -71.00837 22 ft 49 kts 77°
2026-04-28 21:23 42.35786 -71.00115 27 ft 107 kts 76°
2026-04-28 21:23 42.36001 -70.98981 175 ft 137 kts 74°
2026-04-28 21:24 42.36288 -70.97728 822 ft 135 kts 70°
2026-04-28 21:24 42.36590 -70.96507 1476 ft 147 kts 77°
2026-04-28 21:24 42.36713 -70.94988 1836 ft 175 kts 88°
2026-04-28 21:24 42.36918 -70.93384 2742 ft 171 kts 78°
2026-04-28 21:25 42.37141 -70.91827 3512 ft 177 kts 75°
2026-04-28 21:25 42.37502 -70.90129 3822 ft 203 kts 72°
2026-04-28 21:25 42.37947 -70.88219 4235 ft 214 kts 72°
2026-04-28 21:25 42.38348 -70.86272 4925 ft 217 kts 78°
2026-04-28 21:26 42.38641 -70.84253 5533 ft 221 kts 79°
2026-04-28 21:26 42.38758 -70.82164 6119 ft 226 kts 92°
2026-04-28 21:26 42.38628 -70.80033 6711 ft 230 kts 97°
2026-04-28 21:26 42.38294 -70.77903 7282 ft 233 kts 105°
2026-04-28 21:27 42.37850 -70.75786 7856 ft 235 kts 106°
2026-04-28 21:27 42.37253 -70.73719 8382 ft 239 kts 126°
2026-04-28 21:27 42.35958 -70.72336 8891 ft 243 kts 161°
2026-04-28 21:27 42.34284 -70.72069 9435 ft 245 kts 180°
2026-04-28 21:28 42.32570 -70.72050 9999 ft 248 kts 180°
2026-04-28 21:28 42.30837 -70.72100 10496 ft 251 kts 182°
2026-04-28 21:28 42.29089 -70.72307 10980 ft 255 kts 197°
2026-04-28 21:28 42.27501 -70.73362 11456 ft 256 kts 216°
2026-04-28 21:29 42.26097 -70.74851 11980 ft 258 kts 223°
2026-04-28 21:29 42.24840 -70.76580 12495 ft 259 kts 232°
2026-04-28 21:29 42.23698 -70.78473 13062 ft 261 kts 233°
2026-04-28 21:29 42.22629 -70.80456 13602 ft 262 kts 242°
2026-04-28 21:30 42.21802 -70.82645 14124 ft 262 kts 250°
2026-04-28 21:30 42.21156 -70.84948 14612 ft 262 kts 256°
2026-04-28 21:30 42.20727 -70.87337 15101 ft 263 kts 261°
2026-04-28 21:30 42.20347 -70.89751 15613 ft 264 kts 261°
2026-04-28 21:31 42.19956 -70.92181 16104 ft 265 kts 261°
2026-04-28 21:31 42.19602 -70.94626 16579 ft 267 kts 262°
2026-04-28 21:31 42.19274 -70.97063 17048 ft 268 kts 262°
2026-04-28 21:31 42.18932 -70.99544 17547 ft 270 kts 262°
2026-04-28 21:32 42.18590 -71.02041 18041 ft 272 kts 262°
2026-04-28 21:32 42.18246 -71.04552 18510 ft 274 kts 262°
2026-04-28 21:32 42.17897 -71.07085 18935 ft 275 kts 262°
2026-04-28 21:32 42.17547 -71.09626 19384 ft 276 kts 262°
2026-04-28 21:33 42.17195 -71.12182 19815 ft 278 kts 262°
2026-04-28 21:33 42.16841 -71.14740 20261 ft 279 kts 261°
2026-04-28 21:33 42.16483 -71.17320 20708 ft 280 kts 261°
2026-04-28 21:33 42.16127 -71.19905 21147 ft 281 kts 261°
2026-04-28 21:34 42.15767 -71.22505 21579 ft 283 kts 261°
2026-04-28 21:34 42.15403 -71.25116 22001 ft 284 kts 261°
2026-04-28 21:34 42.15038 -71.27739 22417 ft 285 kts 261°
2026-04-28 21:34 42.14669 -71.30371 22842 ft 286 kts 261°
2026-04-28 21:35 42.14301 -71.33008 23227 ft 287 kts 261°
2026-04-28 21:35 42.13932 -71.35656 23624 ft 288 kts 261°
2026-04-28 21:35 42.13559 -71.38308 23973 ft 289 kts 261°
2026-04-28 21:35 42.13185 -71.40970 24277 ft 290 kts 261°
2026-04-28 21:36 42.12809 -71.43645 24572 ft 291 kts 260°
2026-04-28 21:36 42.12430 -71.46328 24854 ft 293 kts 260°
2026-04-28 21:36 42.12049 -71.49027 25155 ft 294 kts 260°
2026-04-28 21:36 42.11665 -71.51738 25457 ft 295 kts 260°
2026-04-28 21:37 42.11278 -71.54464 25767 ft 297 kts 260°
2026-04-28 21:37 42.10889 -71.57201 26033 ft 298 kts 260°
2026-04-28 21:37 42.10498 -71.59954 26315 ft 300 kts 260°
2026-04-28 21:37 42.10104 -71.62722 26590 ft 302 kts 260°
2026-04-28 21:38 42.09708 -71.65502 26875 ft 303 kts 261°
2026-04-28 21:38 42.09323 -71.68296 27151 ft 305 kts 259°
2026-04-28 21:38 42.08906 -71.71100 27418 ft 306 kts 259°
2026-04-28 21:38 42.08492 -71.73924 27693 ft 308 kts 259°
2026-04-28 21:39 42.08074 -71.76758 27949 ft 309 kts 259°
2026-04-28 21:39 42.07654 -71.79602 28213 ft 311 kts 259°
2026-04-28 21:39 42.07230 -71.82464 28457 ft 312 kts 259°
2026-04-28 21:39 42.06804 -71.85339 28704 ft 314 kts 259°
2026-04-28 21:40 42.06376 -71.88228 28958 ft 316 kts 259°
2026-04-28 21:40 42.05945 -71.91130 29201 ft 317 kts 259°
2026-04-28 21:40 42.05511 -71.94045 29443 ft 318 kts 258°
2026-04-28 21:40 42.05075 -71.96971 29679 ft 320 kts 258°
2026-04-28 21:41 42.04635 -71.99913 29920 ft 321 kts 258°
2026-04-28 21:41 42.04193 -72.02864 30157 ft 322 kts 258°
2026-04-28 21:41 42.03749 -72.05823 30361 ft 323 kts 258°
2026-04-28 21:41 42.03303 -72.08788 30600 ft 323 kts 258°
2026-04-28 21:42 42.02859 -72.11742 30832 ft 322 kts 258°
2026-04-28 21:42 42.02414 -72.14688 31073 ft 321 kts 258°
2026-04-28 21:42 42.01970 -72.17630 31298 ft 320 kts 259°
2026-04-28 21:42 42.01528 -72.20562 31522 ft 320 kts 259°
2026-04-28 21:43 42.01084 -72.23486 31733 ft 317 kts 259°
2026-04-28 21:43 42.00649 -72.26345 31815 ft 311 kts 259°
2026-04-28 21:43 41.99772 -72.32110 31881 ft 317 kts 259°
2026-04-28 21:44 41.98889 -72.37886 31886 ft 315 kts 258°
2026-04-28 21:44 41.98003 -72.43665 31903 ft 323 kts 258°
2026-04-28 21:45 41.97072 -72.49705 31920 ft 337 kts 258°
2026-04-28 21:45 41.96100 -72.55997 31922 ft 351 kts 258°
2026-04-28 21:46 41.95083 -72.62551 31914 ft 365 kts 258°
2026-04-28 21:46 41.93190 -72.68963 31914 ft 379 kts 239°
2026-04-28 21:47 41.90095 -72.74860 31908 ft 393 kts 232°
2026-04-28 21:47 41.86461 -72.80501 31950 ft 404 kts 231°
2026-04-28 21:48 41.82770 -72.86103 32051 ft 390 kts 231°
2026-04-28 21:48 41.79200 -72.91515 32104 ft 392 kts 231°
2026-04-28 21:49 41.75538 -72.97051 32274 ft 398 kts 231°
2026-04-28 21:49 41.73729 -72.99778 33004 ft 384 kts 231°
2026-04-28 21:49 41.71988 -73.02406 33759 ft 371 kts 232°
2026-04-28 21:50 41.70305 -73.04946 34384 ft 359 kts 232°
2026-04-28 21:50 41.68670 -73.07409 34896 ft 349 kts 232°
2026-04-28 21:50 41.67080 -73.09806 35347 ft 340 kts 232°
2026-04-28 21:50 41.65527 -73.12143 35758 ft 332 kts 233°
2026-04-28 21:51 41.64006 -73.14429 36118 ft 326 kts 233°
2026-04-28 21:51 41.62510 -73.16678 36372 ft 322 kts 233°
2026-04-28 21:51 41.61019 -73.18919 36489 ft 323 kts 233°
2026-04-28 21:51 41.59547 -73.21126 36601 ft 323 kts 233°
2026-04-28 21:52 41.58054 -73.23362 36717 ft 323 kts 233°
2026-04-28 21:52 41.56560 -73.25599 36816 ft 323 kts 233°
2026-04-28 21:52 41.53567 -73.30075 37000 ft 323 kts 233°
2026-04-28 21:53 41.50565 -73.34559 37166 ft 324 kts 233°
2026-04-28 21:53 41.47557 -73.39045 37315 ft 325 kts 233°
2026-04-28 21:54 41.44541 -73.43536 37457 ft 325 kts 233°
2026-04-28 21:54 41.43033 -73.45783 37570 ft 326 kts 233°
2026-04-28 21:54 41.41520 -73.48031 37677 ft 326 kts 233°
2026-04-28 21:55 41.40006 -73.50279 37784 ft 326 kts 233°
2026-04-28 21:55 41.38489 -73.52529 37872 ft 327 kts 233°
2026-04-28 21:55 41.36971 -73.54780 37992 ft 327 kts 233°
2026-04-28 21:55 41.35445 -73.57040 37981 ft 330 kts 233°
2026-04-28 21:56 41.32874 -73.60847 37969 ft 335 kts 233°
2026-04-28 21:56 41.29722 -73.65506 37972 ft 342 kts 232°
2026-04-28 21:57 41.26484 -73.70287 37780 ft 354 kts 232°
2026-04-28 21:57 41.24820 -73.72738 37669 ft 361 kts 232°
2026-04-28 21:57 41.23123 -73.75238 37559 ft 367 kts 232°
2026-04-28 21:58 41.21400 -73.77774 37453 ft 373 kts 232°
2026-04-28 21:58 41.19644 -73.80355 37346 ft 380 kts 232°
2026-04-28 21:58 41.17869 -73.82958 37218 ft 376 kts 232°
2026-04-28 21:58 41.16144 -73.85486 37086 ft 364 kts 232°
2026-04-28 21:59 41.14475 -73.87937 36925 ft 352 kts 232°
2026-04-28 21:59 41.12856 -73.90311 36763 ft 345 kts 232°
2026-04-28 21:59 41.11229 -73.92700 36652 ft 353 kts 232°
2026-04-28 22:00 41.07893 -73.97579 36433 ft 366 kts 232°
2026-04-28 22:00 41.06170 -74.00095 36331 ft 372 kts 232°
2026-04-28 22:00 41.04414 -74.02658 36228 ft 379 kts 232°
2026-04-28 22:00 41.02629 -74.05261 36125 ft 385 kts 231°
2026-04-28 22:01 41.00830 -74.07878 36008 ft 382 kts 231°
2026-04-28 22:01 40.99048 -74.10474 35886 ft 380 kts 232°
2026-04-28 22:01 40.97265 -74.13066 35768 ft 381 kts 232°
2026-04-28 22:01 40.95481 -74.15659 35646 ft 382 kts 232°
2026-04-28 22:02 40.93694 -74.18255 35531 ft 381 kts 232°
2026-04-28 22:02 40.91911 -74.20839 35413 ft 380 kts 232°
2026-04-28 22:02 40.90124 -74.23431 35297 ft 381 kts 232°
2026-04-28 22:02 40.88336 -74.26019 35173 ft 381 kts 232°
2026-04-28 22:03 40.86552 -74.28602 35056 ft 380 kts 232°
2026-04-28 22:03 40.84768 -74.31180 34940 ft 381 kts 232°
2026-04-28 22:03 40.82981 -74.33763 34811 ft 381 kts 232°
2026-04-28 22:03 40.81193 -74.36341 34694 ft 381 kts 232°
2026-04-28 22:04 40.79405 -74.38920 34575 ft 381 kts 232°
2026-04-28 22:04 40.77617 -74.41496 34458 ft 381 kts 232°
2026-04-28 22:04 40.75828 -74.44072 34349 ft 382 kts 232°
2026-04-28 22:04 40.74031 -74.46656 34235 ft 382 kts 232°
2026-04-28 22:05 40.72234 -74.49237 34109 ft 382 kts 232°
2026-04-28 22:05 40.69746 -74.52811 33920 ft 383 kts 232°
2026-04-28 22:05 40.67936 -74.55407 33773 ft 389 kts 232°
2026-04-28 22:06 40.66087 -74.58056 33652 ft 395 kts 232°
2026-04-28 22:06 40.64209 -74.60743 33526 ft 401 kts 231°
2026-04-28 22:06 40.62322 -74.63439 33398 ft 399 kts 231°
2026-04-28 22:07 40.60549 -74.65973 33277 ft 398 kts 231°
2026-04-28 22:07 40.56789 -74.71340 33006 ft 401 kts 231°
2026-04-28 22:07 40.49392 -74.81869 32492 ft 405 kts 231°
2026-04-28 22:07 40.41707 -74.92767 32148 ft 408 kts 231°
2026-04-28 22:08 40.33980 -75.03686 32136 ft 410 kts 231°
2026-04-28 22:08 40.18460 -75.25500 32151 ft 410 kts 231°
2026-04-28 22:09 40.02885 -75.47232 32147 ft 410 kts 231°
2026-04-28 22:09 39.87377 -75.68719 32149 ft 408 kts 231°
2026-04-28 22:10 39.71757 -75.90207 32147 ft 409 kts 231°
2026-04-28 22:10 39.56100 -76.11593 32138 ft 408 kts 231°
2026-04-28 22:11 39.40478 -76.32784 32154 ft 407 kts 231°
2026-04-28 22:11 39.24830 -76.53864 32148 ft 407 kts 231°
2026-04-28 22:12 39.09179 -76.74805 32153 ft 405 kts 231°
2026-04-28 22:12 38.93522 -76.95609 32121 ft 404 kts 231°
2026-04-28 22:13 38.77851 -77.16291 32080 ft 404 kts 231°
2026-04-28 22:13 38.62190 -77.36822 32119 ft 403 kts 231°
2026-04-28 22:14 38.46512 -77.57241 32113 ft 402 kts 232°
2026-04-28 22:14 38.30857 -77.77495 32115 ft 400 kts 232°
2026-04-28 22:15 38.15217 -77.97600 32108 ft 399 kts 232°
2026-04-28 22:15 37.98656 -78.16436 32121 ft 416 kts 218°
2026-04-28 22:16 37.76957 -78.28226 32103 ft 426 kts 213°
2026-04-28 22:16 37.55044 -78.39752 30993 ft 431 kts 213°
2026-04-28 22:16 37.43963 -78.45552 29695 ft 434 kts 212°
2026-04-28 22:17 37.32754 -78.51400 28307 ft 438 kts 211°
2026-04-28 22:17 37.21582 -78.57360 28083 ft 435 kts 215°
2026-04-28 22:17 37.15917 -78.61530 28107 ft 429 kts 221°
2026-04-28 22:17 37.10922 -78.65650 27481 ft 427 kts 221°
2026-04-28 22:18 37.06140 -78.69609 26741 ft 392 kts 222°
2026-04-28 22:18 37.01795 -78.73214 25984 ft 359 kts 222°
2026-04-28 22:18 36.97695 -78.76611 25284 ft 345 kts 222°
2026-04-28 22:18 36.93822 -78.79811 24610 ft 331 kts 222°
2026-04-28 22:19 36.90023 -78.82943 23768 ft 331 kts 221°
2026-04-28 22:19 36.86125 -78.86150 22477 ft 333 kts 220°
2026-04-28 22:19 36.82284 -78.89309 21186 ft 337 kts 220°
2026-04-28 22:19 36.78402 -78.92497 19917 ft 330 kts 220°
2026-04-28 22:20 36.74682 -78.95550 18655 ft 312 kts 220°
2026-04-28 22:20 36.71100 -78.98489 17315 ft 304 kts 218°
2026-04-28 22:20 36.67038 -79.00039 16044 ft 320 kts 187°
2026-04-28 22:20 36.62543 -78.99759 14885 ft 325 kts 179°
2026-04-28 22:21 36.58175 -78.98730 14460 ft 316 kts 172°
2026-04-28 22:21 36.53846 -78.97488 14096 ft 322 kts 171°
2026-04-28 22:21 36.49495 -78.96222 13941 ft 320 kts 171°
2026-04-28 22:21 36.45149 -78.94964 13935 ft 322 kts 171°
2026-04-28 22:22 36.40903 -78.93106 13668 ft 330 kts 154°
2026-04-28 22:22 36.37153 -78.89881 13050 ft 327 kts 142°
2026-04-28 22:22 36.33923 -78.85933 12392 ft 325 kts 137°
2026-04-28 22:22 36.30825 -78.81969 11346 ft 314 kts 137°
2026-04-28 22:23 36.27859 -78.78196 10323 ft 293 kts 138°
2026-04-28 22:23 36.26477 -78.75620 9641 ft 286 kts 107°
2026-04-28 22:23 36.25955 -78.73297 9085 ft 275 kts 107°
2026-04-28 22:23 36.25356 -78.71077 8509 ft 270 kts 113°
2026-04-28 22:24 36.24520 -78.69019 7855 ft 267 kts 124°
2026-04-28 22:24 36.23389 -78.67209 7210 ft 265 kts 125°
2026-04-28 22:24 36.22406 -78.65269 6381 ft 269 kts 131°
2026-04-28 22:24 36.21120 -78.63700 6130 ft 249 kts 142°
2026-04-28 22:25 36.19722 -78.62485 5702 ft 247 kts 144°
2026-04-28 22:25 36.18343 -78.61411 5751 ft 219 kts 156°
2026-04-28 22:25 36.16966 -78.60635 5275 ft 225 kts 164°
2026-04-28 22:25 36.15425 -78.60090 4719 ft 229 kts 165°
2026-04-28 22:26 36.13972 -78.59607 4464 ft 211 kts 182°
2026-04-28 22:26 36.12539 -78.59455 4354 ft 195 kts 182°
2026-04-28 22:26 36.11199 -78.59457 4280 ft 189 kts 189°
2026-04-28 22:26 36.09905 -78.59556 4198 ft 190 kts 189°
2026-04-28 22:27 36.08594 -78.59786 4142 ft 189 kts 193°
2026-04-28 22:27 36.07306 -78.60065 4174 ft 184 kts 192°
2026-04-28 22:27 36.06045 -78.60334 4130 ft 182 kts 198°
2026-04-28 22:27 36.04847 -78.60798 4089 ft 180 kts 202°
2026-04-28 22:28 36.03682 -78.61289 4093 ft 177 kts 201°
2026-04-28 22:28 36.02538 -78.61871 3971 ft 178 kts 216°
2026-04-28 22:28 36.01556 -78.62818 3780 ft 177 kts 221°
2026-04-28 22:28 36.00561 -78.63724 3598 ft 178 kts 222°
2026-04-28 22:29 35.99659 -78.64744 3340 ft 179 kts 228°
2026-04-28 22:29 35.98862 -78.65885 3116 ft 171 kts 232°
2026-04-28 22:29 35.98117 -78.66993 2816 ft 166 kts 230°
2026-04-28 22:29 35.97381 -78.67967 2657 ft 142 kts 227°
2026-04-28 22:30 35.96702 -78.68795 2375 ft 135 kts 224°
2026-04-28 22:30 35.96026 -78.69598 2170 ft 137 kts 225°
2026-04-28 22:30 35.95343 -78.70439 1903 ft 141 kts 226°
2026-04-28 22:30 35.94663 -78.71307 1687 ft 139 kts 226°
2026-04-28 22:31 35.93993 -78.72154 1521 ft 134 kts 229°
2026-04-28 22:31 35.93364 -78.72953 1424 ft 129 kts 225°
2026-04-28 22:31 35.92720 -78.73724 1270 ft 129 kts 225°
2026-04-28 22:31 35.92077 -78.74503 1096 ft 132 kts 226°
2026-04-28 22:32 35.91435 -78.75306 931 ft 129 kts 229°
2026-04-28 22:32 35.90795 -78.76067 756 ft 128 kts 226°
2026-04-28 22:32 35.90178 -78.76833 631 ft 125 kts 228°
2026-04-28 22:32 35.89563 -78.77588 483 ft 122 kts 227°
2026-04-28 22:33 35.89011 -78.78270 409 ft 97 kts 225°
2026-04-28 22:33 35.88621 -78.78746 402 ft 61 kts 224°
2026-04-28 22:33 35.88388 -78.79033 392 ft 27 kts 220°
2026-04-28 22:33 35.88262 -78.79050 391 ft 12 kts 154°
2026-04-28 22:34 35.88216 -78.79060 391 ft 0 kts 217°
2026-04-28 22:35 35.88202 -78.79074 391 ft 10 kts 220°
2026-04-28 22:35 35.88120 -78.79092 391 ft 12 kts 189°
2026-04-28 22:35 35.88058 -78.79146 391 ft 11 kts 222°
2026-04-28 22:35 35.87997 -78.79223 389 ft 14 kts 229°
2026-04-28 22:36 35.87972 -78.79237 389 ft 3 kts 162°
2026-04-28 22:36 35.87949 -78.79218 389 ft 4 kts 146°
2026-04-28 22:36 35.87930 -78.79198 389 ft 0 kts 136°
2026-04-28 22:36 35.87926 -78.79193 389 ft 0 kts 136°